Torna al catalogo

FENGYUN 1C DEB

AttivoSSO
NORAD 29987·DEBRIS·🇨🇳 China

Lanciato May 10, 1999 da Taiyuan Satellite Launch Center

Loading…

Prossimi Passaggi (prossime 24 ore)

TLE

AggiornatoSource: Space-Track

Epoca: Sep 12, 2026, 16:22 UTC

1 29987U 99025LM  26255.68201912  .00002042  00000-0  10186-2 0  9995
2 29987  98.8844 152.0795 0076580 171.4911 244.2705 14.16492733  2474

Traccia FENGYUN 1C DEB in tempo reale con AllMySat

Download on the App Store